Weather in Molotitsy

Russia / Vladimir Oblast     55°45′02″N   41°57′18″E
temp.,
°C
wind,
m/s
gust,
m/s
humid.,
%
clouds,
%
prec.,
mm/h
press.,
hPa
HPBL,
m
2 march, tue
tue200:00+1wsw61392100 0.1 1011614
03:00+1wsw61493100 0.1 1008663
06:00+1w61395100 0.0 1005697
09:00+1wnw61297100 0.2 1005734
12:00+1wnw51010070 0.4 1004659
15:00+1wnw5109080 0.7 1004833
18:00−1wnw51188100 0.1 1004597
21:00−2nw5119499 0.2 1006579
3 march, wed
wed300:00−4nw5129193 0.1 1006586
03:00−7nw5128974 0.1 1008431
06:00−8nw5129294 0.0 1009513
09:00−7nw6118897 0.1 1011700
12:00−4nw6108072 0.0 1011865
15:00−2wnw598563 0.0 1011943
18:00−3wnw41189100 0.1 1010682
21:00−4w4109397 0.1 1011309
4 march, thu
thu400:00−4w4109383 0.0 1009308
03:00−5wsw5119387 0.0 1008354
06:00−3sw61291100 0.0 1004608
09:00−1wsw81495100 0.7 1001920
12:00+1wsw71391100 0.6 9981040
15:000wsw81395100 0.7 9971132
18:000wsw71490100 0.1 996847
21:00−1wnw61189100 0.5 997754
5 march, fri
fri500:00−5wnw41087100 0.0 999336
03:00−8wnw489268 0.0 1001179
06:00−10wnw35950 0.0 100488
09:00−9nw25920 0.0 1006241
12:00−5nw237711 0.0 1007568
15:00−4wnw126910 0.0 1008748
18:00−8sse118293 0.0 100821
21:00−10ese118697 0.0 100921
6 march, sat
sat600:00−10ne1189100 0.0 100821
03:00−11n229295 0.0 100821
06:00−12n229672 0.0 100834
09:00−10nnw249478 0.1 1008251
12:00−6nw348491 0.0 1008621
15:00−6wnw458496 0.1 1008718
18:00−9wnw379091 0.1 1009158
21:00−11wnw349176 0.2 101063